Location: Koslow
(50.3020°N, 18.5663°E)
Time: 02:53:53
(UTC+00:00)

STARLINK-1357 - Pass Details

Date: 18 June 2021
Orbit: 546 x 548 km, 53.1° (Epoch: 03 August)

Event Time Altitude Azimuth Distance (km) Brightness Sun altitude
Exits shadow 23:54:19 - 130° (SE) 2,605 6.8 -14.8°
Enters shadow 00:54:25 -69° 240° (WSW) 12,513 10.4 -11.1°
Maximum altitude 01:33:35 21° 137° (SE) 1,241 5.3 -7.6°
